[Iaude] MPEC L11: 2022 KZ6 [a=1.45,e=0.24,i=2.7,H=25.7]

mpec at marsden.cfa.harvard.edu mpec at marsden.cfa.harvard.edu
Thu Jun 2 07:08:20 EDT 2022


M.P.E.C. 2022-L11                                  Issued 2022 June 2, 11:06 UT

     The Minor Planet Electronic Circulars contain information on unusual
         minor planets and routine data on comets.  They are published
    on behalf of Division F of the International Astronomical Union by the
          Minor Planet Center, Smithsonian Astrophysical Observatory,
                          Cambridge, MA 02138, U.S.A.

             Prepared using the Tamkin Foundation Computer Network

                              MPC at CFA.HARVARD.EDU
            URL https://www.minorplanetcenter.net/    ISSN 1523-6714

                                    2022 KZ6                                    


Observations:
     K22K06Z* C2022 05 31.27907315 39 21.380-14 49 33.92         21.44GVEL011G96
     K22K06Z  C2022 05 31.28421215 39 22.003-14 49 46.56         20.75GVEL011G96
     K22K06Z  C2022 05 31.28933615 39 22.594-14 49 59.27         20.99GVEL011G96
     K22K06Z  C2022 05 31.29445015 39 23.238-14 50 10.90         21.11GVEL011G96
     K22K06Z KC2022 05 31.36607615 39 31.835-14 53 02.51         21.10GVEL011I52
     K22K06Z KC2022 05 31.36914215 39 32.173-14 53 10.03         21.02GVEL011I52
     K22K06Z KC2022 05 31.37220815 39 32.598-14 53 16.51         20.96GVEL011I52
     K22K06Z KC2022 05 31.37527615 39 32.980-14 53 23.86         20.79GVEL011I52
     K22K06Z 2C2022 05 31.98154715 41 10.674-15 18 06.06         21.1 GVEL011J04
     K22K06Z KC2022 06 01.23256515 41 50.082-15 28 28.06         21.99GVEL011I52
     K22K06Z KC2022 06 01.23413515 41 50.294-15 28 32.63         22.13GVEL011I52
     K22K06Z KC2022 06 01.23570515 41 50.485-15 28 35.62         22.42GVEL011I52
     K22K06Z KC2022 06 02.26164415 44 32.140-16 10 54.00         20.80GVEL011I52
     K22K06Z KC2022 06 02.26471015 44 32.520-16 11 02.00         21.86GVEL011I52

Observer details:
G96 Mt. Lemmon Survey.  Observer G. J. Leonard.  Measurers E. J. Christensen,
    D. Fay, J. B. Fazekas, D. C. Fuls, A. R. Gibbs, A. D. Grauer, H. Groeller,
    J. K. Hogan, R. A. Kowalski, S. M. Larson, G. J. Leonard, D. Rankin, R. L.
    Seaman, A. Serrano, F. C. Shelly, K. W. Wierzchos.  1.5-m reflector + 10K
    CCD.
I52 Steward Observatory, Mt. Lemmon Station.  Observers A. Serrano, D. Rankin.
    Measurers E. J. Christensen, D. Fay, J. B. Fazekas, D. C. Fuls, A. R.
    Gibbs, A. D. Grauer, H. Groeller, J. K. Hogan, R. A. Kowalski, S. M.
    Larson, G. J. Leonard, D. Rankin, R. L. Seaman, A. Serrano, F. C. Shelly,
    K. W. Wierzchos.  1.0-m prime focus + CCD.
J04 ESA Optical Ground Station, Tenerife.  Observers P. Ruiz, M. Micheli, D.
    Fohring, L. Conversi, D. Koschny.  Measurers M. Micheli, R. Kresken, A.
    Knofel, M. Busch, E. Schwab.  1.0-m f/4.4 reflector + CCD.

Orbital elements:
2022 KZ6                                                 Earth MOID = 0.0906 AU
Epoch 2022 Jan. 21.0 TT = JDT 2459600.5                 Veres                   
M 285.12702              (2000.0)            P               Q                  
n   0.56200851     Peri.  174.60058     -0.32257953     +0.94541117             
a   1.4542557      Node    76.57416     -0.87020618     -0.27698091             
e   0.2409979      Incl.    2.72612     -0.37240255     -0.17169535             
P   1.75           H   25.79          G   0.15           U   8                  
Residuals in seconds of arc
220531 G96  0.1-  0.2+    220531 I52  0.5-  0.5-    220601 I52  0.0   0.6-
220531 G96  0.2+  0.0     220531 I52  0.1+  0.3+    220601 I52  0.0   0.4+
220531 G96  0.0   0.3-    220531 I52  0.1+  0.2+    220602 I52  0.1+  0.2+
220531 G96  0.6+  0.4+    220531 J04  0.0   0.5+    220602 I52  0.0   0.1-
220531 I52  0.1+  0.2-    220601 I52  0.3-  0.1+

Ephemeris:
2022 KZ6                 a,e,i = 1.45, 0.24, 3                   q = 1.1038
Date    TT    R. A. (2000) Decl.     Delta      r    Elong.  Phase     V
2022 05 03    14 51 50.1 -01 56 24   0.1268  1.1314   166.1    12.4    22.3
...
2022 05 18    15 11 32.2 -06 59 42   0.1028  1.1114   166.0    12.7    21.8
...
2022 05 26    15 26 55.5 -11 23 12   0.09535 1.1057   165.9    12.9    21.7
...
2022 06 01    15 41 12.5 -15 17 45   0.09245 1.1038   165.8    13.1    21.6
2022 06 02    15 43 49.9 -15 58 52   0.09220 1.1037   165.7    13.1    21.6
2022 06 03    15 46 31.5 -16 40 20   0.09202 1.1037   165.7    13.1    21.6
...
2022 06 09    16 04 04.9 -20 51 24   0.09237 1.1046   165.2    13.6    21.6
...
2022 06 17    16 30 28.3 -26 04 58   0.09672 1.1091   163.9    14.7    21.8
...
2022 07 02    17 22 16.0 -32 52 35   0.1169  1.1271   159.8    18.2    22.3

M. P. C. Staff               (C) Copyright 2022 MPC           M.P.E.C. 2022-L11




More information about the Iaude mailing list